| time (UTC) | temp F | wind direction | speed MPH | gust MPH | rain 1hr in | rain 24hr in | rain mn in | humidity % | barometer mb |
| 20260901090721 | 82 | 34 | 1.0 | 5.0 | 0.00 | 0.00 | 0.00 | 26 | 1020.2 |
| 20260901090221 | 82 | 62 | 3.0 | 5.0 | 0.00 | 0.00 | 0.00 | 26 | 1020.2 |
| 20260901085721 | 82 | 66 | 3.0 | 5.0 | 0.00 | 0.00 | 0.00 | 25 | 1020.1 |
| 20260901085220 | 82 | 89 | 2.0 | 4.0 | 0.00 | 0.00 | 0.00 | 27 | 1020.1 |
| 20260901084721 | 82 | 171 | 1.0 | 4.0 | 0.00 | 0.00 | 0.00 | 27 | 1020.0 |
| 20260901084446 | 82 | 168 | 1.0 | 6.0 | 0.00 | 0.00 | 0.00 | 27 | 1020.0 |
| 20260901083720 | 82 | 117 | 2.0 | 6.0 | 0.00 | 0.00 | 0.00 | 28 | 1020.0 |
| 20260901083221 | 81 | 131 | 3.0 | 5.0 | 0.00 | 0.00 | 0.00 | 28 | 1019.9 |
| 20260901082937 | 80 | 202 | 2.0 | 6.0 | 0.00 | 0.00 | 0.00 | 29 | 1019.9 |
| 20260901082220 | 81 | 182 | 3.0 | 6.0 | 0.00 | 0.00 | 0.00 | 28 | 1019.8 |
| 20260901081720 | 80 | 193 | 2.0 | 4.0 | 0.00 | 0.00 | 0.00 | 28 | 1019.7 |
| 20260901081220 | 80 | 203 | 3.0 | 4.0 | 0.00 | 0.00 | 0.00 | 28 | 1019.7 |
| 20260901080720 | 80 | 190 | 2.0 | 6.0 | 0.00 | 0.00 | 0.00 | 29 | 1019.6 |
| 20260901080219 | 80 | 203 | 4.0 | 6.0 | 0.00 | 0.00 | 0.00 | 28 | 1019.5 |
| 20260901075719 | 80 | 179 | 2.0 | 5.0 | 0.00 | 0.00 | 0.00 | 28 | 1019.4 |
| 20260901075219 | 79 | 134 | 2.0 | 5.0 | 0.00 | 0.00 | 0.00 | 28 | 1019.4 |
| 20260901074720 | 80 | 185 | 3.0 | 4.0 | 0.00 | 0.00 | 0.00 | 28 | 1019.4 |
| 20260901074219 | 79 | 197 | 3.0 | 4.0 | 0.00 | 0.00 | 0.00 | 30 | 1019.2 |
| 20260901073720 | 79 | 176 | 2.0 | 3.0 | 0.00 | 0.00 | 0.00 | 29 | 1019.2 |
| 20260901073219 | 79 | 195 | 2.0 | 3.0 | 0.00 | 0.00 | 0.00 | 29 | 1019.2 |
| 20260901072719 | 79 | 200 | 2.0 | 4.0 | 0.00 | 0.00 | 0.00 | 30 | 1019.4 |
| 20260901072219 | 78 | 199 | 1.0 | 4.0 | 0.00 | 0.00 | 0.00 | 29 | 1019.4 |
| 20260901071719 | 78 | 189 | 2.0 | 3.0 | 0.00 | 0.00 | 0.00 | 30 | 1019.2 |
| 20260901071219 | 78 | 188 | 0.0 | 3.0 | 0.00 | 0.00 | 0.00 | 30 | 1019.2 |
| 20260901070719 | 77 | 188 | 0.0 | 0.0 | 0.00 | 0.00 | 0.00 | 29 | 1019.2 |
| 20260901070218 | 76 | 183 | 0.0 | 0.0 | 0.00 | 0.00 | 0.00 | 30 | 1019.2 |
| 20260901065718 | 76 | 183 | 0.0 | 0.0 | 0.00 | 0.00 | 0.00 | 31 | 1019.2 |
| 20260901065219 | 75 | 183 | 0.0 | 0.0 | 0.00 | 0.00 | 0.00 | 32 | 1019.1 |
| 20260901064718 | 74 | 183 | 0.0 | 0.0 | 0.00 | 0.00 | 0.00 | 35 | 1019.1 |
| 20260901064218 | 74 | 183 | 0.0 | 0.0 | 0.00 | 0.00 | 0.00 | 35 | 1019.1 |
| 20260901063718 | 73 | 183 | 0.0 | 0.0 | 0.00 | 0.00 | 0.00 | 34 | 1019.1 |
| 20260901063223 | 72 | 183 | 0.0 | 0.0 | 0.00 | 0.00 | 0.00 | 34 | 1019.2 |
| 20260901062717 | 72 | 183 | 0.0 | 0.0 | 0.00 | 0.00 | 0.00 | 34 | 1019.1 |
| 20260901062218 | 72 | 183 | 0.0 | 0.0 | 0.00 | 0.00 | 0.00 | 36 | 1019.1 |
| 20260901062154 | 72 | 183 | 0.0 | 0.0 | 0.00 | 0.00 | 0.00 | 36 | 1019.1 |
| 20260901061217 | 72 | 183 | 0.0 | 0.0 | 0.00 | 0.00 | 0.00 | 35 | 1019.0 |
| 20260901060717 | 71 | 0 | 0.0 | 0.0 | 0.00 | 0.00 | 0.00 | 35 | 1019.0 |
| 20260901060434 | 71 | 0 | 0.0 | 3.0 | 0.00 | 0.00 | 0.00 | 34 | 1018.9 |
| 20260901055717 | 72 | 0 | 2.0 | 3.0 | 0.00 | 0.00 | 0.00 | 34 | 1018.9 |
| 20260901055442 | 72 | 0 | 2.0 | 3.0 | 0.00 | 0.00 | 0.00 | 31 | 1018.8 |
| 20260901055202 | 73 | 0 | 0.0 | 3.0 | 0.00 | 0.00 | 0.00 | 28 | 1018.8 |
| 20260901054218 | 73 | 0 | 0.0 | 5.0 | 0.00 | 0.00 | 0.00 | 24 | 1018.7 |
| 20260901053716 | 73 | 0 | 3.0 | 5.0 | 0.00 | 0.00 | 0.00 | 24 | 1018.6 |
| 20260901053216 | 73 | 0 | 3.0 | 6.0 | 0.00 | 0.00 | 0.00 | 25 | 1018.5 |
| 20260901052716 | 72 | 0 | 3.0 | 9.0 | 0.00 | 0.00 | 0.00 | 24 | 1018.4 |
| 20260901052216 | 72 | 0 | 6.0 | 9.0 | 0.00 | 0.00 | 0.00 | 24 | 1018.4 |
| 20260901051943 | 72 | 0 | 4.0 | 7.0 | 0.00 | 0.00 | 0.00 | 25 | 1018.4 |
| 20260901051216 | 72 | 0 | 5.0 | 7.0 | 0.00 | 0.00 | 0.00 | 26 | 1018.4 |
| 20260901050716 | 71 | 0 | 4.0 | 6.0 | 0.00 | 0.00 | 0.00 | 26 | 1018.4 |
| 20260901050216 | 71 | 0 | 4.0 | 5.0 | 0.00 | 0.00 | 0.00 | 26 | 1018.4 |
| 20260901045749 | 71 | 0 | 4.0 | 5.0 | 0.00 | 0.00 | 0.00 | 27 | 1018.3 |
| 20260901045215 | 71 | 0 | 3.0 | 5.0 | 0.00 | 0.00 | 0.00 | 27 | 1018.2 |
| 20260901044715 | 71 | 0 | 1.0 | 3.0 | 0.00 | 0.00 | 0.00 | 27 | 1018.2 |
| 20260901044214 | 71 | 0 | 1.0 | 3.0 | 0.00 | 0.00 | 0.00 | 28 | 1018.2 |
| 20260901043714 | 72 | 0 | 2.0 | 5.0 | 0.00 | 0.00 | 0.00 | 28 | 1018.1 |
| 20260901043214 | 72 | 0 | 2.0 | 5.0 | 0.00 | 0.00 | 0.00 | 28 | 1018.0 |
| 20260901042713 | 72 | 0 | 4.0 | 5.0 | 0.00 | 0.00 | 0.00 | 28 | 1018.1 |
| 20260901042214 | 72 | 0 | 2.0 | 4.0 | 0.00 | 0.00 | 0.00 | 28 | 1018.0 |
| 20260901041714 | 72 | 0 | 3.0 | 4.0 | 0.00 | 0.00 | 0.00 | 27 | 1018.0 |
| 20260901041213 | 72 | 0 | 3.0 | 5.0 | 0.00 | 0.00 | 0.00 | 27 | 1018.0 |
| 20260901040713 | 72 | 0 | 2.0 | 5.0 | 0.00 | 0.00 | 0.00 | 27 | 1018.0 |
| 20260901040214 | 72 | 0 | 2.0 | 5.0 | 0.00 | 0.00 | 0.00 | 27 | 1018.0 |
| 20260901035937 | 73 | 0 | 2.0 | 6.0 | 0.00 | 0.00 | 0.00 | 27 | 1017.9 |
| 20260901035213 | 73 | 0 | 3.0 | 6.0 | 0.00 | 0.00 | 0.00 | 27 | 1017.9 |
| 20260901034713 | 73 | 0 | 4.0 | 7.0 | 0.00 | 0.00 | 0.00 | 27 | 1017.8 |
| 20260901034656 | 73 | 0 | 4.0 | 7.0 | 0.00 | 0.00 | 0.00 | 26 | 1017.8 |
| 20260901033712 | 74 | 0 | 3.0 | 6.0 | 0.00 | 0.00 | 0.00 | 26 | 1017.7 |
| 20260901033213 | 74 | 0 | 2.0 | 4.0 | 0.00 | 0.00 | 0.00 | 26 | 1017.7 |
| 20260901032713 | 74 | 0 | 3.0 | 4.0 | 0.00 | 0.00 | 0.00 | 26 | 1017.7 |
| 20260901032432 | 74 | 0 | 2.0 | 4.0 | 0.00 | 0.00 | 0.00 | 26 | 1017.7 |
| 20260901031712 | 74 | 0 | 2.0 | 7.0 | 0.00 | 0.00 | 0.00 | 27 | 1017.6 |
| 20260901031212 | 74 | 0 | 4.0 | 10.0 | 0.00 | 0.00 | 0.00 | 27 | 1017.5 |
| 20260901030712 | 74 | 0 | 6.0 | 10.0 | 0.00 | 0.00 | 0.00 | 32 | 1017.5 |
| 20260901030212 | 74 | 0 | 4.0 | 9.0 | 0.00 | 0.00 | 0.00 | 32 | 1017.5 |
| 20260901025712 | 73 | 0 | 5.0 | 9.0 | 0.00 | 0.00 | 0.00 | 33 | 1017.5 |
| 20260901025212 | 73 | 0 | 3.0 | 6.0 | 0.00 | 0.00 | 0.00 | 34 | 1017.6 |
| 20260901024712 | 73 | 0 | 4.0 | 6.0 | 0.00 | 0.00 | 0.00 | 34 | 1017.6 |
| 20260901024212 | 73 | 0 | 3.0 | 6.0 | 0.00 | 0.00 | 0.00 | 34 | 1017.6 |
| 20260901023711 | 73 | 0 | 3.0 | 5.0 | 0.00 | 0.00 | 0.00 | 34 | 1017.5 |
| 20260901023211 | 73 | 0 | 3.0 | 6.0 | 0.00 | 0.00 | 0.00 | 34 | 1017.5 |
| 20260901022711 | 73 | 0 | 4.0 | 7.0 | 0.00 | 0.00 | 0.00 | 36 | 1017.6 |
| 20260901022211 | 73 | 0 | 6.0 | 7.0 | 0.00 | 0.00 | 0.00 | 34 | 1017.5 |
| 20260901021711 | 73 | 0 | 2.0 | 3.0 | 0.00 | 0.00 | 0.00 | 34 | 1017.5 |
| 20260901021211 | 73 | 0 | 2.0 | 5.0 | 0.00 | 0.00 | 0.00 | 38 | 1017.5 |
| 20260901020711 | 73 | 0 | 3.0 | 5.0 | 0.00 | 0.00 | 0.00 | 39 | 1017.4 |
| 20260901020210 | 73 | 0 | 3.0 | 5.0 | 0.00 | 0.00 | 0.00 | 40 | 1017.5 |
| 20260901015939 | 73 | 0 | 4.0 | 6.0 | 0.00 | 0.00 | 0.00 | 40 | 1017.5 |
| 20260901015210 | 73 | 0 | 4.0 | 6.0 | 0.00 | 0.00 | 0.00 | 39 | 1017.5 |
| 20260901014710 | 72 | 0 | 4.0 | 7.0 | 0.00 | 0.00 | 0.00 | 38 | 1017.4 |
| 20260901014655 | 72 | 0 | 3.0 | 7.0 | 0.00 | 0.00 | 0.00 | 37 | 1017.3 |
| 20260901013710 | 71 | 0 | 3.0 | 7.0 | 0.00 | 0.00 | 0.00 | 37 | 1017.3 |
| 20260901013210 | 69 | 0 | 5.0 | 7.0 | 0.00 | 0.00 | 0.00 | 38 | 1017.3 |
| 20260901012710 | 69 | 0 | 2.0 | 6.0 | 0.00 | 0.00 | 0.00 | 42 | 1017.3 |
| 20260901012210 | 69 | 0 | 1.0 | 5.0 | 0.00 | 0.00 | 0.00 | 42 | 1017.3 |
| 20260901011709 | 68 | 0 | 3.0 | 5.0 | 0.00 | 0.00 | 0.00 | 45 | 1017.2 |
| 20260901011209 | 68 | 0 | 0.0 | 4.0 | 0.00 | 0.00 | 0.00 | 45 | 1017.2 |
| 20260901010710 | 69 | 0 | 4.0 | 4.0 | 0.00 | 0.00 | 0.00 | 44 | 1017.1 |
| 20260901010209 | 70 | 0 | 2.0 | 3.0 | 0.00 | 0.00 | 0.00 | 40 | 1017.0 |
| 20260901005709 | 71 | 0 | 0.0 | 2.0 | 0.00 | 0.00 | 0.00 | 34 | 1017.1 |
| 20260901005209 | 71 | 0 | 1.0 | 4.0 | 0.00 | 0.00 | 0.00 | 36 | 1017.0 |
| 20260901004931 | 70 | 0 | 3.0 | 6.0 | 0.00 | 0.00 | 0.00 | 31 | 1017.0 |
| 20260901004208 | 70 | 0 | 2.0 | 6.0 | 0.00 | 0.00 | 0.00 | 37 | 1016.9 |
| 20260901003709 | 69 | 0 | 1.0 | 6.0 | 0.00 | 0.00 | 0.00 | 40 | 1016.9 |
| 20260901003209 | 69 | 0 | 2.0 | 6.0 | 0.00 | 0.00 | 0.00 | 43 | 1017.0 |
| 20260901002709 | 69 | 0 | 0.0 | 6.0 | 0.00 | 0.00 | 0.00 | 41 | 1016.9 |
| 20260901002208 | 70 | 0 | 2.0 | 6.0 | 0.00 | 0.00 | 0.00 | 41 | 1016.8 |
| 20260901001709 | 72 | 0 | 4.0 | 5.0 | 0.00 | 0.00 | 0.00 | 35 | 1016.9 |
| 20260901001208 | 73 | 0 | 0.0 | 4.0 | 0.00 | 0.00 | 0.00 | 34 | 1016.8 |
| 20260901000708 | 73 | 0 | 0.0 | 4.0 | 0.00 | 0.00 | 0.00 | 31 | 1016.7 |
| 20260901000211 | 74 | 0 | 2.0 | 6.0 | 0.00 | 0.00 | 0.00 | 28 | 1016.7 |
| 20260831235707 | 74 | 0 | 2.0 | 7.0 | 0.00 | 0.00 | 0.00 | 28 | 1016.8 |
| 20260831235207 | 73 | 0 | 4.0 | 7.0 | 0.00 | 0.00 | 0.00 | 30 | 1016.8 |
| 20260831234709 | 73 | 0 | 2.0 | 9.0 | 0.00 | 0.00 | 0.00 | 31 | 1016.8 |
| 20260831234428 | 72 | 0 | 4.0 | 9.0 | 0.00 | 0.00 | 0.00 | 31 | 1016.8 |
| 20260831233707 | 72 | 0 | 0.0 | 4.0 | 0.00 | 0.00 | 0.00 | 36 | 1016.8 |
| 20260831233207 | 72 | 0 | 2.0 | 4.0 | 0.00 | 0.00 | 0.00 | 35 | 1016.8 |
| 20260831232708 | 73 | 0 | 0.0 | 3.0 | 0.00 | 0.00 | 0.00 | 32 | 1016.8 |
| 20260831232207 | 74 | 0 | 1.0 | 3.0 | 0.00 | 0.00 | 0.00 | 31 | 1016.7 |
| 20260831231707 | 75 | 0 | 0.0 | 0.0 | 0.00 | 0.00 | 0.00 | 26 | 1016.7 |
| 20260831231206 | 75 | 0 | 0.0 | 3.0 | 0.00 | 0.00 | 0.00 | 27 | 1016.7 |
| 20260831230706 | 75 | 0 | 0.0 | 3.0 | 0.00 | 0.00 | 0.00 | 29 | 1016.7 |
| 20260831230411 | 78 | 0 | 0.0 | 3.0 | 0.00 | 0.00 | 0.00 | 23 | 1016.7 |
| 20260831230401 | 76 | 0 | 2.0 | 2.0 | 0.00 | 0.00 | 0.00 | 27 | 1016.8 |
| 20260831225206 | 79 | 0 | 0.0 | 4.0 | 0.00 | 0.00 | 0.00 | 24 | 1016.7 |
| 20260831224925 | 81 | 0 | 2.0 | 7.0 | 0.00 | 0.00 | 0.00 | 20 | 1016.7 |
| 20260831224206 | 81 | 0 | 6.0 | 11.0 | 0.00 | 0.00 | 0.00 | 19 | 1016.5 |
| 20260831223706 | 81 | 0 | 4.0 | 11.0 | 0.00 | 0.00 | 0.00 | 19 | 1016.5 |
| 20260831223206 | 81 | 0 | 7.0 | 9.0 | 0.00 | 0.00 | 0.00 | 19 | 1016.5 |
| 20260831222706 | 81 | 0 | 6.0 | 10.0 | 0.00 | 0.00 | 0.00 | 19 | 1016.5 |
| 20260831222205 | 81 | 0 | 4.0 | 10.0 | 0.00 | 0.00 | 0.00 | 19 | 1016.5 |
| 20260831222151 | 82 | 0 | 6.0 | 12.0 | 0.00 | 0.00 | 0.00 | 19 | 1016.5 |
| 20260831221206 | 82 | 0 | 8.0 | 12.0 | 0.00 | 0.00 | 0.00 | 19 | 1016.5 |
| 20260831220705 | 82 | 0 | 6.0 | 13.0 | 0.00 | 0.00 | 0.00 | 18 | 1016.6 |
| 20260831220205 | 82 | 0 | 6.0 | 15.0 | 0.00 | 0.00 | 0.00 | 18 | 1016.5 |
| 20260831215929 | 82 | 0 | 8.0 | 15.0 | 0.00 | 0.00 | 0.00 | 18 | 1016.5 |
| 20260831215205 | 82 | 0 | 9.0 | 13.0 | 0.00 | 0.00 | 0.00 | 19 | 1016.6 |
| 20260831214927 | 81 | 0 | 5.0 | 12.0 | 0.00 | 0.00 | 0.00 | 21 | 1016.5 |
| 20260831214205 | 81 | 0 | 4.0 | 12.0 | 0.00 | 0.00 | 0.00 | 21 | 1016.7 |
| 20260831213705 | 81 | 0 | 5.0 | 12.0 | 0.00 | 0.00 | 0.00 | 22 | 1016.5 |
| 20260831213205 | 81 | 0 | 5.0 | 12.0 | 0.00 | 0.00 | 0.00 | 25 | 1016.5 |
| 20260831212703 | 81 | 0 | 3.0 | 10.0 | 0.00 | 0.00 | 0.00 | 31 | 1016.4 |
| 20260831212205 | 81 | 0 | 6.0 | 10.0 | 0.00 | 0.00 | 0.00 | 38 | 1016.5 |
| 20260831211706 | 81 | 0 | 4.0 | 7.0 | 0.00 | 0.00 | 0.00 | 40 | 1016.4 |
| 20260831211204 | 81 | 0 | 3.0 | 7.0 | 0.00 | 0.00 | 0.00 | 40 | 1016.3 |
| 20260831210704 | 81 | 0 | 5.0 | 7.0 | 0.00 | 0.00 | 0.00 | 44 | 1016.3 |
| 20260831210204 | 81 | 0 | 3.0 | 9.0 | 0.00 | 0.00 | 0.00 | 44 | 1016.4 |
| 20260831205704 | 81 | 0 | 5.0 | 9.0 | 0.00 | 0.00 | 0.00 | 44 | 1016.3 |
| 20260831205204 | 81 | 0 | 5.0 | 9.0 | 0.00 | 0.00 | 0.00 | 44 | 1016.2 |
| 20260831204703 | 81 | 0 | 2.0 | 7.0 | 0.00 | 0.00 | 0.00 | 44 | 1016.1 |
| 20260831204204 | 81 | 0 | 5.0 | 7.0 | 0.00 | 0.00 | 0.00 | 43 | 1016.0 |
| 20260831203704 | 81 | 0 | 3.0 | 6.0 | 0.00 | 0.00 | 0.00 | 43 | 1016.0 |
| 20260831203205 | 82 | 0 | 4.0 | 6.0 | 0.00 | 0.00 | 0.00 | 43 | 1016.0 |
| 20260831202704 | 82 | 0 | 4.0 | 6.0 | 0.00 | 0.00 | 0.00 | 42 | 1016.0 |
| 20260831202205 | 82 | 0 | 3.0 | 4.0 | 0.00 | 0.00 | 0.00 | 40 | 1015.9 |
| 20260831201921 | 82 | 0 | 3.0 | 5.0 | 0.00 | 0.00 | 0.00 | 40 | 1015.7 |
| 20260831201204 | 82 | 0 | 4.0 | 5.0 | 0.00 | 0.00 | 0.00 | 39 | 1015.8 |
| 20260831200704 | 82 | 0 | 2.0 | 4.0 | 0.00 | 0.00 | 0.00 | 39 | 1015.7 |
| 20260831200201 | 83 | 0 | 0.0 | 2.0 | 0.00 | 0.00 | 0.00 | 39 | 1015.7 |
| 20260831195703 | 83 | 0 | 0.0 | 3.0 | 0.00 | 0.00 | 0.00 | 39 | 1015.6 |
| 20260831195431 | 83 | 0 | 2.0 | 3.0 | 0.00 | 0.00 | 0.00 | 39 | 1015.6 |
| 20260831194704 | 83 | 0 | 1.0 | 3.0 | 0.00 | 0.00 | 0.00 | 39 | 1015.5 |
| 20260831194428 | 83 | 0 | 2.0 | 4.0 | 0.00 | 0.00 | 0.00 | 38 | 1015.6 |
| 20260831193708 | 83 | 0 | 3.0 | 4.0 | 0.00 | 0.00 | 0.00 | 38 | 1015.4 |
| 20260831193208 | 83 | 0 | 3.0 | 6.0 | 0.00 | 0.00 | 0.00 | 38 | 1015.2 |
| 20260831192703 | 83 | 0 | 3.0 | 6.0 | 0.00 | 0.00 | 0.00 | 38 | 1015.4 |
| 20260831192203 | 83 | 0 | 4.0 | 10.0 | 0.00 | 0.00 | 0.00 | 38 | 1015.2 |
| 20260831191703 | 84 | 0 | 6.0 | 10.0 | 0.00 | 0.00 | 0.00 | 38 | 1015.1 |
| 20260831191203 | 84 | 0 | 4.0 | 7.0 | 0.00 | 0.00 | 0.00 | 38 | 1015.1 |
| 20260831190702 | 84 | 0 | 4.0 | 6.0 | 0.00 | 0.00 | 0.00 | 38 | 1015.1 |
| 20260831190201 | 84 | 0 | 4.0 | 7.0 | 0.00 | 0.00 | 0.00 | 37 | 1015.0 |
| 20260831185703 | 85 | 0 | 4.0 | 7.0 | 0.00 | 0.00 | 0.00 | 37 | 1014.8 |
| 20260831185202 | 85 | 0 | 4.0 | 6.0 | 0.00 | 0.00 | 0.00 | 37 | 1014.8 |
| 20260831184703 | 85 | 0 | 4.0 | 6.0 | 0.00 | 0.00 | 0.00 | 37 | 1014.7 |
| 20260831184203 | 85 | 0 | 4.0 | 7.0 | 0.00 | 0.00 | 0.00 | 36 | 1014.6 |
| 20260831183702 | 86 | 0 | 6.0 | 7.0 | 0.00 | 0.00 | 0.00 | 36 | 1014.5 |
| 20260831183202 | 86 | 1 | 6.0 | 7.0 | 0.00 | 0.00 | 0.00 | 35 | 1014.6 |
| 20260831182702 | 87 | 345 | 3.0 | 6.0 | 0.00 | 0.00 | 0.00 | 34 | 1014.5 |
| 20260831182202 | 87 | 0 | 5.0 | 7.0 | 0.00 | 0.00 | 0.00 | 33 | 1014.4 |
| 20260831181702 | 88 | 0 | 4.0 | 9.0 | 0.00 | 0.00 | 0.00 | 32 | 1014.3 |
| 20260831181424 | 88 | 13 | 5.0 | 9.0 | 0.00 | 0.00 | 0.00 | 32 | 1014.2 |
| 20260831180702 | 89 | 23 | 4.0 | 4.0 | 0.00 | 0.00 | 0.00 | 30 | 1014.2 |
| 20260831180201 | 90 | 56 | 1.0 | 4.0 | 0.00 | 0.00 | 0.00 | 29 | 1014.2 |
| 20260831175935 | 90 | 56 | 2.0 | 4.0 | 0.00 | 0.00 | 0.00 | 27 | 1014.1 |
| 20260831175422 | 91 | 243 | 0.0 | 2.0 | 0.00 | 0.00 | 0.00 | 26 | 1014.1 |
| 20260831174926 | 91 | 241 | 0.0 | 1.0 | 0.00 | 0.00 | 0.00 | 27 | 1014.0 |
| 20260831174201 | 91 | 241 | 0.0 | 1.0 | 0.00 | 0.00 | 0.00 | 27 | 1014.0 |
| 20260831173700 | 91 | 241 | 0.0 | 1.0 | 0.00 | 0.00 | 0.00 | 26 | 1014.1 |
| 20260831173201 | 91 | 241 | 0.0 | 2.0 | 0.00 | 0.00 | 0.00 | 26 | 1013.9 |
| 20260831172701 | 91 | 241 | 1.0 | 2.0 | 0.00 | 0.00 | 0.00 | 27 | 1014.0 |
| 20260831172200 | 91 | 241 | 1.0 | 2.0 | 0.00 | 0.00 | 0.00 | 27 | 1014.0 |
| 20260831171701 | 91 | 241 | 1.0 | 3.0 | 0.00 | 0.00 | 0.00 | 25 | 1013.9 |
| 20260831171200 | 91 | 241 | 1.0 | 4.0 | 0.00 | 0.00 | 0.00 | 27 | 1014.0 |
| 20260831170927 | 91 | 241 | 2.0 | 4.0 | 0.00 | 0.00 | 0.00 | 26 | 1014.0 |
| 20260831170200 | 91 | 231 | 2.0 | 4.0 | 0.00 | 0.00 | 0.00 | 26 | 1014.1 |
| 20260831165701 | 92 | 230 | 2.0 | 4.0 | 0.00 | 0.00 | 0.00 | 25 | 1014.0 |
| 20260831165200 | 92 | 254 | 2.0 | 4.0 | 0.00 | 0.00 | 0.00 | 23 | 1014.0 |
| 20260831164700 | 92 | 216 | 1.0 | 3.0 | 0.00 | 0.00 | 0.00 | 22 | 1014.0 |
| 20260831164159 | 92 | 216 | 2.0 | 4.0 | 0.00 | 0.00 | 0.00 | 21 | 1014.0 |
| 20260831163919 | 91 | 213 | 1.0 | 6.0 | 0.00 | 0.00 | 0.00 | 22 | 1014.0 |
| 20260831163200 | 92 | 204 | 4.0 | 6.0 | 0.00 | 0.00 | 0.00 | 24 | 1014.0 |
| 20260831162659 | 92 | 204 | 3.0 | 7.0 | 0.00 | 0.00 | 0.00 | 24 | 1014.1 |
| 20260831162159 | 91 | 203 | 3.0 | 7.0 | 0.00 | 0.00 | 0.00 | 24 | 1014.0 |
| 20260831161919 | 92 | 197 | 4.0 | 6.0 | 0.00 | 0.00 | 0.00 | 24 | 1014.0 |
| 20260831161159 | 91 | 179 | 2.0 | 6.0 | 0.00 | 0.00 | 0.00 | 24 | 1014.1 |
| 20260831160659 | 92 | 192 | 2.0 | 6.0 | 0.00 | 0.00 | 0.00 | 25 | 1014.1 |
| 20260831160159 | 92 | 207 | 3.0 | 5.0 | 0.00 | 0.00 | 0.00 | 25 | 1014.1 |
| 20260831155659 | 92 | 207 | 2.0 | 6.0 | 0.00 | 0.00 | 0.00 | 26 | 1014.0 |
| 20260831155424 | 92 | 204 | 5.0 | 7.0 | 0.00 | 0.00 | 0.00 | 26 | 1014.1 |
| 20260831154658 | 92 | 244 | 6.0 | 7.0 | 0.00 | 0.00 | 0.00 | 26 | 1014.1 |
| 20260831154159 | 92 | 207 | 4.0 | 7.0 | 0.00 | 0.00 | 0.00 | 28 | 1014.1 |
| 20260831153658 | 92 | 250 | 6.0 | 7.0 | 0.00 | 0.00 | 0.00 | 26 | 1014.2 |
| 20260831153158 | 92 | 165 | 1.0 | 7.0 | 0.00 | 0.00 | 0.00 | 26 | 1014.2 |
| 20260831152657 | 92 | 196 | 2.0 | 9.0 | 0.00 | 0.00 | 0.00 | 25 | 1014.2 |
| 20260831152158 | 92 | 255 | 3.0 | 11.0 | 0.00 | 0.00 | 0.00 | 27 | 1014.2 |
| 20260831151658 | 92 | 247 | 7.0 | 11.0 | 0.00 | 0.00 | 0.00 | 27 | 1014.3 |
| 20260831151157 | 92 | 233 | 4.0 | 9.0 | 0.00 | 0.00 | 0.00 | 27 | 1014.4 |
| 20260831150657 | 92 | 189 | 2.0 | 6.0 | 0.00 | 0.00 | 0.00 | 26 | 1014.4 |
| 20260831150158 | 92 | 202 | 4.0 | 6.0 | 0.00 | 0.00 | 0.00 | 26 | 1014.4 |
| 20260831145657 | 91 | 219 | 4.0 | 6.0 | 0.00 | 0.00 | 0.00 | 29 | 1014.3 |
| 20260831145157 | 92 | 206 | 3.0 | 9.0 | 0.00 | 0.00 | 0.00 | 27 | 1014.4 |
| 20260831144657 | 92 | 202 | 4.0 | 9.0 | 0.00 | 0.00 | 0.00 | 27 | 1014.5 |
| 20260831144157 | 92 | 197 | 1.0 | 7.0 | 0.00 | 0.00 | 0.00 | 27 | 1014.4 |
| 20260831143657 | 91 | 245 | 2.0 | 7.0 | 0.00 | 0.00 | 0.00 | 27 | 1014.5 |
| 20260831143157 | 91 | 176 | 2.0 | 7.0 | 0.00 | 0.00 | 0.00 | 28 | 1014.5 |
| 20260831142656 | 91 | 200 | 5.0 | 9.0 | 0.00 | 0.00 | 0.00 | 28 | 1014.5 |
| 20260831142156 | 91 | 171 | 3.0 | 9.0 | 0.00 | 0.00 | 0.00 | 28 | 1014.5 |
| 20260831141657 | 91 | 185 | 4.0 | 9.0 | 0.00 | 0.00 | 0.00 | 28 | 1014.5 |
| 20260831141156 | 91 | 203 | 6.0 | 9.0 | 0.00 | 0.00 | 0.00 | 27 | 1014.6 |
| 20260831140656 | 91 | 179 | 5.0 | 10.0 | 0.00 | 0.00 | 0.00 | 28 | 1014.6 |
| 20260831140156 | 91 | 172 | 3.0 | 10.0 | 0.00 | 0.00 | 0.00 | 28 | 1014.7 |
| 20260831135656 | 92 | 196 | 2.0 | 6.0 | 0.00 | 0.00 | 0.00 | 27 | 1014.5 |
| 20260831135156 | 92 | 238 | 2.0 | 4.0 | 0.00 | 0.00 | 0.00 | 27 | 1014.6 |
| 20260831134920 | 91 | 248 | 3.0 | 6.0 | 0.00 | 0.00 | 0.00 | 28 | 1014.7 |
| 20260831134155 | 91 | 180 | 4.0 | 6.0 | 0.00 | 0.00 | 0.00 | 28 | 1014.7 |
| 20260831133656 | 91 | 134 | 2.0 | 6.0 | 0.00 | 0.00 | 0.00 | 27 | 1014.7 |
| 20260831133155 | 92 | 168 | 1.0 | 6.0 | 0.00 | 0.00 | 0.00 | 27 | 1014.7 |
| 20260831132656 | 91 | 82 | 4.0 | 6.0 | 0.00 | 0.00 | 0.00 | 26 | 1014.8 |
| 20260831132155 | 92 | 137 | 3.0 | 7.0 | 0.00 | 0.00 | 0.00 | 27 | 1014.9 |
| 20260831131655 | 92 | 106 | 2.0 | 7.0 | 0.00 | 0.00 | 0.00 | 27 | 1015.0 |
| 20260831131155 | 91 | 155 | 2.0 | 7.0 | 0.00 | 0.00 | 0.00 | 29 | 1015.0 |
| 20260831130655 | 90 | 145 | 4.0 | 7.0 | 0.00 | 0.00 | 0.00 | 28 | 1015.1 |
| 20260831130155 | 91 | 154 | 4.0 | 7.0 | 0.00 | 0.00 | 0.00 | 28 | 1015.2 |
| 20260831125655 | 90 | 135 | 4.0 | 9.0 | 0.00 | 0.00 | 0.00 | 29 | 1015.2 |
| 20260831125154 | 90 | 158 | 3.0 | 9.0 | 0.00 | 0.00 | 0.00 | 30 | 1015.2 |
| 20260831124655 | 90 | 254 | 5.0 | 6.0 | 0.00 | 0.00 | 0.00 | 31 | 1015.4 |
| 20260831124155 | 90 | 171 | 2.0 | 7.0 | 0.00 | 0.00 | 0.00 | 30 | 1015.4 |
| 20260831123655 | 90 | 179 | 4.0 | 7.0 | 0.00 | 0.00 | 0.00 | 30 | 1015.2 |
| 20260831123154 | 91 | 110 | 5.0 | 6.0 | 0.00 | 0.00 | 0.00 | 30 | 1015.4 |
| 20260831122913 | 89 | 159 | 3.0 | 7.0 | 0.00 | 0.00 | 0.00 | 32 | 1015.5 |
| 20260831122154 | 89 | 140 | 4.0 | 7.0 | 0.00 | 0.00 | 0.00 | 33 | 1015.5 |
| 20260831121654 | 88 | 196 | 1.0 | 7.0 | 0.00 | 0.00 | 0.00 | 33 | 1015.6 |
| 20260831121153 | 89 | 186 | 3.0 | 7.0 | 0.00 | 0.00 | 0.00 | 32 | 1015.6 |
| 20260831120654 | 88 | 96 | 2.0 | 7.0 | 0.00 | 0.00 | 0.00 | 33 | 1015.6 |
| 20260831120154 | 88 | 154 | 4.0 | 7.0 | 0.00 | 0.00 | 0.00 | 32 | 1015.7 |
| 20260831115653 | 89 | 154 | 5.0 | 10.0 | 0.00 | 0.00 | 0.00 | 32 | 1015.7 |
| 20260831115153 | 89 | 159 | 4.0 | 10.0 | 0.00 | 0.00 | 0.00 | 31 | 1015.8 |
| 20260831114654 | 89 | 63 | 2.0 | 7.0 | 0.00 | 0.00 | 0.00 | 31 | 1015.8 |
| 20260831114153 | 89 | 147 | 4.0 | 7.0 | 0.00 | 0.00 | 0.00 | 31 | 1015.8 |
| 20260831113653 | 89 | 123 | 4.0 | 9.0 | 0.00 | 0.00 | 0.00 | 32 | 1015.8 |
| 20260831113152 | 89 | 147 | 5.0 | 9.0 | 0.00 | 0.00 | 0.00 | 32 | 1016.0 |
| 20260831112653 | 89 | 158 | 0.0 | 5.0 | 0.00 | 0.00 | 0.00 | 32 | 1016.1 |
| 20260831112414 | 89 | 78 | 3.0 | 5.0 | 0.00 | 0.00 | 0.00 | 31 | 1016.1 |
| 20260831111652 | 87 | 124 | 0.0 | 5.0 | 0.00 | 0.00 | 0.00 | 32 | 1016.2 |
| 20260831111420 | 88 | 83 | 4.0 | 5.0 | 0.00 | 0.00 | 0.00 | 32 | 1016.2 |
| 20260831110657 | 88 | 82 | 1.0 | 5.0 | 0.00 | 0.00 | 0.00 | 33 | 1016.3 |
| 20260831110152 | 87 | 124 | 2.0 | 7.0 | 0.00 | 0.00 | 0.00 | 34 | 1016.4 |
| 20260831105652 | 87 | 117 | 4.0 | 7.0 | 0.00 | 0.00 | 0.00 | 32 | 1016.4 |
| 20260831105152 | 86 | 175 | 2.0 | 7.0 | 0.00 | 0.00 | 0.00 | 34 | 1016.3 |
| 20260831104909 | 87 | 130 | 5.0 | 7.0 | 0.00 | 0.00 | 0.00 | 35 | 1016.4 |
| 20260831104152 | 86 | 76 | 4.0 | 6.0 | 0.00 | 0.00 | 0.00 | 35 | 1016.4 |
| 20260831103652 | 85 | 252 | 2.0 | 5.0 | 0.00 | 0.00 | 0.00 | 37 | 1016.6 |
| 20260831103151 | 84 | 166 | 4.0 | 5.0 | 0.00 | 0.00 | 0.00 | 39 | 1016.6 |
| 20260831102652 | 84 | 251 | 2.0 | 6.0 | 0.00 | 0.00 | 0.00 | 37 | 1016.5 |
| 20260831102422 | 84 | 166 | 2.0 | 6.0 | 0.00 | 0.00 | 0.00 | 40 | 1016.6 |
| 20260831101916 | 83 | 221 | 2.0 | 5.0 | 0.00 | 0.00 | 0.00 | 40 | 1016.7 |
| 20260831101151 | 83 | 202 | 3.0 | 5.0 | 0.00 | 0.00 | 0.00 | 40 | 1016.7 |
| 20260831100651 | 83 | 199 | 1.0 | 5.0 | 0.00 | 0.00 | 0.00 | 40 | 1016.7 |
| 20260831100151 | 83 | 196 | 3.0 | 9.0 | 0.00 | 0.00 | 0.00 | 41 | 1016.8 |
| 20260831095651 | 83 | 166 | 4.0 | 9.0 | 0.00 | 0.00 | 0.00 | 40 | 1016.8 |
| 20260831095151 | 83 | 190 | 0.0 | 5.0 | 0.00 | 0.00 | 0.00 | 42 | 1016.9 |
| 20260831094918 | 82 | 140 | 2.0 | 5.0 | 0.00 | 0.00 | 0.00 | 42 | 1017.0 |
| 20260831094150 | 82 | 171 | 2.0 | 6.0 | 0.00 | 0.00 | 0.00 | 42 | 1017.1 |
| 20260831093903 | 82 | 182 | 5.0 | 7.0 | 0.00 | 0.00 | 0.00 | 43 | 1017.1 |
| 20260831093853 | 81 | 185 | 2.0 | 6.0 | 0.00 | 0.00 | 0.00 | 43 | 1017.1 |
| 20260831092911 | 82 | 161 | 3.0 | 7.0 | 0.00 | 0.00 | 0.00 | 42 | 1017.1 |
| 20260831092149 | 82 | 178 | 3.0 | 6.0 | 0.00 | 0.00 | 0.00 | 43 | 1017.1 |
| 20260831091650 | 81 | 244 | 5.0 | 6.0 | 0.00 | 0.00 | 0.00 | 43 | 1017.1 |
| 20260831091415 | 82 | 244 | 2.0 | 6.0 | 0.00 | 0.00 | 0.00 | 43 | 1017.1 |